Madawaska, ME

7:33 PM EDT on August 28, 2016 (GMT -0400)
Northern Aroostook Regional

Weather History for KFVE - June, 2012

Change the Weather History Date:

Thursday, June 7, 2012

  Actual Average Record
Temperature  
Mean Temperature 56 °F 57 °F  
Max Temperature 67 °F 67 °F 78 °F (1999)
Min Temperature 45 °F 47 °F 37 °F (2002)
Degree Days  
Heating Degree Days 9    
Month to date heating degree days 85  
Since 1 July heating degree days 8719  
Cooling Degree Days 0    
Month to date cooling degree days 0  
Year to date cooling degree days 10  
Growing Degree Days 6 (Base 50)    
Moisture  
Dew Point 42 °F    
Average Humidity 63    
Maximum Humidity 93    
Minimum Humidity 37    
Precipitation  
Precipitation 0.01 in 0.11 in 0.39 in (2016)
Month to date precipitation 0.07 0.73  
Year to date precipitation 9.80 10.63  
Sea Level Pressure  
Sea Level Pressure 29.91 in    
Wind  
Wind Speed 6 mph (NW)    
Max Wind Speed 15 mph    
Max Gust Speed 20 mph    
Visibility 10 miles    
Events      
T = Trace of Precipitation, MM = Missing Value Source: NWS Daily Summary

Daily Weather History Graph

Daily Weather History Graph

Search for Another Location

Airport or City:

Trip Planner

Search our weather history database for the weather conditions in past years. The results will help you decide how hot, cold, wet, or windy it might be!

Date:

Astronomy

Jun. 07, 2012 Rise Set
Actual Time 4:37 AM EDT 8:27 PM EDT
Civil Twilight 3:58 AM EDT 9:06 PM EDT
Nautical Twilight 3:04 AM EDT 10:00 PM EDT
Astronomical Twilight 1:45 AM EDT 11:20 PM EDT
Moon 11:03 PM EDT (6/7) 8:13 AM EDT (6/7)
Length of Visible Light 17h 08m
Length of Day
15h 49m
Waning Gibbous, 86% of the Moon is Illuminated
Jun 7
Waning Gibbous
Jun 11
Last Quarter
Jun 19
New
Jun 26
First Quarter
Jul 3
Full

Hourly Weather History & Observations

Time (EDT) Temp. Windchill Dew Point Humidity Pressure Visibility Wind Dir Wind Speed Gust Speed Precip Events Conditions
12:53 AM 46.9 °F - 43.0 °F 86% 30.00 in 10.0 mi East 4.6 mph - N/A   Partly Cloudy
1:53 AM 46.9 °F - 42.1 °F 83% 30.00 in 10.0 mi ENE 3.5 mph - N/A   Partly Cloudy
2:53 AM 46.0 °F 44.8 °F 42.1 °F 86% 29.99 in 10.0 mi NNW 3.5 mph - N/A   Overcast
3:53 AM 46.0 °F 44.8 °F 42.1 °F 86% 29.98 in 10.0 mi North 3.5 mph - N/A   Mostly Cloudy
4:53 AM 45.0 °F - 42.1 °F 90% 29.98 in 10.0 mi Calm Calm - N/A   Overcast
5:53 AM 45.0 °F 43.5 °F 43.0 °F 93% 29.98 in 10.0 mi NNW 3.5 mph - N/A   Clear
6:53 AM 46.9 °F - 45.0 °F 93% 29.98 in 10.0 mi NNW 3.5 mph - N/A   Clear
7:53 AM 50.0 °F - 44.1 °F 80% 29.98 in 10.0 mi WNW 4.6 mph - N/A   Clear
8:53 AM 53.1 °F - 46.0 °F 77% 29.97 in 10.0 mi WNW 4.6 mph - N/A   Clear
9:53 AM 57.0 °F - 45.0 °F 64% 29.96 in 10.0 mi NNW 5.8 mph - 0.01 in   Clear
10:53 AM 61.0 °F - 46.0 °F 58% 29.94 in 10.0 mi Variable 5.8 mph - N/A   Mostly Cloudy
11:53 AM 62.1 °F - 44.1 °F 52% 29.92 in 10.0 mi WNW 10.4 mph - N/A   Mostly Cloudy
12:53 PM 62.1 °F - 42.1 °F 48% 29.90 in 10.0 mi NNW 9.2 mph - N/A   Mostly Cloudy
1:53 PM 64.0 °F - 43.0 °F 46% 29.89 in 10.0 mi North 11.5 mph 18.4 mph N/A   Partly Cloudy
2:53 PM 66.9 °F - 43.0 °F 42% 29.86 in 10.0 mi NW 13.8 mph 19.6 mph N/A   Scattered Clouds
3:53 PM 64.9 °F - 39.9 °F 40% 29.86 in 10.0 mi WNW 5.8 mph - N/A   Mostly Cloudy
4:53 PM 66.0 °F - 39.9 °F 38% 29.85 in 10.0 mi West 8.1 mph - N/A   Clear
5:53 PM 66.9 °F - 39.9 °F 37% 29.84 in 10.0 mi WNW 9.2 mph - N/A   Clear
6:53 PM 64.9 °F - 39.0 °F 39% 29.84 in 10.0 mi WNW 6.9 mph - N/A   Clear
7:53 PM 61.0 °F - 39.9 °F 46% 29.84 in 10.0 mi WNW 5.8 mph - N/A   Clear
8:53 PM 60.1 °F - 39.0 °F 46% 29.84 in 10.0 mi NW 5.8 mph - N/A   Clear
9:53 PM 57.0 °F - 39.0 °F 51% 29.84 in 10.0 mi West 8.1 mph - N/A   Clear
10:53 PM 55.9 °F - 39.0 °F 53% 29.83 in 10.0 mi West 5.8 mph - N/A   Clear
11:53 PM 50.0 °F - 42.1 °F 74% 29.83 in 10.0 mi Calm Calm - N/A   Clear